Вернуться в каталог

CZ-6A DEB

АктивенPO
NORAD 61390·DEBRIS·🇨🇳 China

Запущен Aug 6, 2024 с Taiyuan Satellite Launch Center

Loading…

Ближайшие Пролёты (ближайшие 24 часа)

TLE

СвежийSource: Space-Track

Эпоха: Sep 13, 2026, 22:52 UTC

1 61390U 24140XF  26256.95319922  .00002070  00000-0  76363-3 0  9998
2 61390  88.6874 234.4975 0016348 166.6544 193.5089 14.32110715105578

Отслеживайте CZ-6A DEB в реальном времени с AllMySat

Download on the App Store